Ord, NE

10:39 AM CDT on June 23, 2017 (GMT -0500)
Sharp

Weather History for KODX - December, 2013

Change the Weather History Date:

Thursday, December 26, 2013

  Actual Average Record
Temperature  
Mean Temperature 35 °F 23 °F  
Max Temperature 53 °F 35 °F 60 °F (2005)
Min Temperature 17 °F 12 °F -5 °F (1996)
Degree Days  
Heating Degree Days 30 42  
Month to date heating degree days 989 1035  
Since 1 July heating degree days 2469 2516  
Cooling Degree Days 0 0  
Month to date cooling degree days 0 0  
Year to date cooling degree days 907 845  
Moisture  
Dew Point 18 °F    
Average Humidity 54    
Maximum Humidity 81    
Minimum Humidity 26    
Precipitation  
Precipitation 0.00 in 0.01 in 0.37 in (2015)
Month to date precipitation T 0.53  
Year to date precipitation 24.35 24.88  
Sea Level Pressure  
Sea Level Pressure 30.20 in    
Wind  
Wind Speed 7 mph (WNW)    
Max Wind Speed 23 mph    
Max Gust Speed 27 mph    
Visibility 10 miles    
Events      
T = Trace of Precipitation, MM = Missing Value Source: NWS Daily Summary

Daily Weather History Graph

Daily Weather History Graph

Search for Another Location

Airport or City:

Trip Planner

Search our weather history database for the weather conditions in past years. The results will help you decide how hot, cold, wet, or windy it might be!

Date:

Astronomy

Dec. 26, 2013 Rise Set
Actual Time 8:01 AM CST 5:11 PM CST
Civil Twilight 7:29 AM CST 5:43 PM CST
Nautical Twilight 6:54 AM CST 6:18 PM CST
Astronomical Twilight 6:21 AM CST 6:52 PM CST
Moon 1:28 AM CST (12/26) 12:51 PM CST (12/26)
Length of Visible Light 10h 13m
Length of Day
9h 10m
Last Quarter, 38% of the Moon is Illuminated
Dec 26
Last Quarter
Jan 1
New
Jan 7
First Quarter
Jan 15
Full
Jan 23
Last Quarter

Hourly Weather History & Observations

Time (CST) Temp. Windchill Dew Point Humidity Pressure Visibility Wind Dir Wind Speed Gust Speed Precip Events Conditions
12:53 AM 24.1 °F 13.1 °F 16.0 °F 71% 30.21 in 10.0 mi SSW 11.5 mph - N/A   Clear
1:53 AM 23.0 °F 13.1 °F 16.0 °F 74% 30.17 in 10.0 mi SSW 9.2 mph - N/A   Clear
2:53 AM 21.9 °F - 16.0 °F 78% 30.17 in 10.0 mi Calm Calm - N/A   Clear
3:53 AM 24.1 °F 19.7 °F 16.0 °F 71% 30.15 in 10.0 mi SSW 3.5 mph - N/A   Clear
4:53 AM 25.0 °F - 16.0 °F 69% 30.13 in 10.0 mi Calm Calm - N/A   Clear
5:53 AM 25.0 °F - 15.1 °F 66% 30.14 in 10.0 mi Calm Calm - N/A   Clear
6:53 AM 25.0 °F - 15.1 °F 66% 30.15 in 10.0 mi Calm Calm - N/A   Clear
7:53 AM 18.0 °F - 12.0 °F 78% 30.17 in 10.0 mi Calm Calm - N/A   Clear
8:53 AM 30.9 °F 21.7 °F 18.0 °F 59% 30.18 in 10.0 mi WNW 11.5 mph - N/A   Clear
9:53 AM 37.9 °F 29.6 °F 18.0 °F 45% 30.19 in 10.0 mi NW 13.8 mph 20.7 mph N/A   Clear
10:53 AM 44.1 °F 37.7 °F 18.0 °F 35% 30.20 in 10.0 mi NNW 12.7 mph - N/A   Clear
11:53 AM 48.0 °F - 18.0 °F 30% 30.19 in 10.0 mi NNW 16.1 mph - N/A   Clear
12:53 PM 51.1 °F - 17.1 °F 26% 30.16 in 10.0 mi NW 17.3 mph 25.3 mph N/A   Clear
1:53 PM 52.0 °F - 19.9 °F 28% 30.15 in 10.0 mi NW 18.4 mph - N/A   Clear
2:53 PM 53.1 °F - 21.0 °F 29% 30.15 in 10.0 mi NW 15.0 mph - N/A   Clear
3:53 PM 51.1 °F - 21.9 °F 32% 30.19 in 10.0 mi NW 19.6 mph - N/A   Clear
4:53 PM 43.0 °F 38.2 °F 21.9 °F 43% 30.23 in 10.0 mi NW 8.1 mph - N/A   Clear
5:53 PM 39.9 °F - 23.0 °F 51% 30.25 in 10.0 mi Calm Calm - N/A   Clear
6:53 PM 28.0 °F 24.2 °F 18.0 °F 66% 30.27 in 10.0 mi SW 3.5 mph - N/A   Clear
7:53 PM 27.0 °F 23.0 °F 18.0 °F 69% 30.29 in 10.0 mi NNW 3.5 mph - N/A   Clear
8:53 PM 23.0 °F - 17.1 °F 78% 30.30 in 10.0 mi Calm Calm - N/A   Clear
9:53 PM 25.0 °F - 17.1 °F 72% 30.27 in 10.0 mi Calm Calm - N/A   Clear
10:53 PM 23.0 °F 17.0 °F 17.1 °F 78% 30.28 in 10.0 mi NW 4.6 mph - N/A   Clear
11:53 PM 21.0 °F - 16.0 °F 81% 30.28 in 10.0 mi Calm Calm - N/A   Clear